Zurück zum Katalog

RADUGA 22

AktivKommunikationGEO
NORAD 19596·PAYLOAD·🇷🇺 Russia

Gestartet Oct 20, 1988 von Baikonur Cosmodrome

Loading…

TLE

AktuellSource: Space-Track

Epoche: Sep 13, 2026, 20:49 UTC

1 19596U 88095A   26256.86789582  .00000114  00000-0  00000+0 0  9999
2 19596  11.4440 329.5684 0006032 202.2697 161.4745  1.00207438122549

Verfolge RADUGA 22 in Echtzeit mit AllMySat

Download on the App Store